Volver al catálogo

GALILEO 21

2C7

ActivoNavegaciónMEO
NORAD 43057·PAYLOAD·🇪🇺 EU

Lanzado Dec 12, 2017 desde Guiana Space Centre

Loading…

Próximos Pases (próximas 24 horas)

TLE

ActualizadoSource: CelesTrak SupGP

Época: Sep 14, 2026, 23:59 UTC

1 43057C 17079C   26257.99979167  .00000000  00000+0  00000+0 0  2577
2 43057  55.0514 219.0340 0004071 305.5275 245.8627  1.70474063    16

Sigue GALILEO 21 en tiempo real con AllMySat

Download on the App Store